www.pogodaiklimat.ru
ПОГОДА в Чикаго / Ромеовилл
Время
и дата
13:35 04.12
13:55 04.12
14:15 04.12
14:35 04.12
14:55 04.12
15:15 04.12
15:35 04.12
15:50 04.12
16:15 04.12
16:35 04.12
16:55 04.12
17:15 04.12
17:35 04.12
17:55 04.12
18:15 04.12
18:35 04.12
18:55 04.12
19:15 04.12
19:35 04.12
19:55 04.12
20:15 04.12
20:35 04.12
20:55 04.12
21:15 04.12
21:35 04.12
21:55 04.12
22:15 04.12
22:35 04.12
22:55 04.12
23:15 04.12
23:30 04.12
23:55 04.12
00:15 05.12
00:35 05.12
00:55 05.12
01:15 05.12
01:35 05.12
01:55 05.12
02:15 05.12
02:35 05.12
02:55 05.12
03:15 05.12
03:35 05.12
03:55 05.12
04:15 05.12
04:35 05.12
04:55 05.12
05:15 05.12
Ветер
(напр.,м/с)
Видим. Явления Облачность Т
(С)
Тd
(С)
f
(%)
Тe
(С)
Тes
(С)
Комфортность P
(гПа)
Po
(гПа)
Тmin
(С)
Tmax
(С)
R
(мм)
R24
(мм)
S
(см)
ЮЗ 5
{9}
16 км ясно +4.0 -10.0 35 0 +2 995.8
ЮЗ 6 16 км ясно +5.0 -10.0 33 +1 +2 995.4
ЮЗ 6 16 км ясно +5.0 -10.0 33 +1 +2 995.4
ЮЗ 7 16 км ясно +5.0 -10.0 33 0 +1 995.1
ЮЗ 7
{9}
16 км ясно +4.0 -10.0 35 -1 0 995.1
ЮЗ 7 16 км ясно +4.0 -10.0 35 -1 -1 995.1
ЮЗ 5
{8}
16 км ясно +4.0 -10.0 35 0 +1 994.8
ЮЗ 5
{8}
16 км ясно +4.0 -10.0 35 0 +1 994.8
ЮЗ 4 16 км ясно +4.0 -10.0 35 +1 +1 994.8
Ю 4 16 км ясно +1.0 -10.0 44 -3 -3 994.4
Ю 4 16 км ясно +1.0 -9.0 47 -3 -3 994.1
Ю 4 16 км ясно 0.0 -9.0 51 -5 -5 993.8
Ю 6 16 км ясно 0.0 -8.0 55 -6 -6 993.8
Ю 5 16 км ясно 0.0 -8.0 55 -5 -5 993.8
Ю 4 16 км ясно -1.0 -8.0 59 -6 -6 993.4
Ю 4 16 км ясно 0.0 -8.0 55 -5 -5 993.4
Ю 4 16 км ясно -1.0 -8.0 59 -6 -6 993.4
Ю 5 16 км ясно 0.0 -8.0 55 -5 -5 993.4
Ю 5 16 км ясно -1.0 -8.0 59 -7 -7 993.1
Ю 5 16 км ясно -1.0 -8.0 59 -7 -7 993.1
ЮЗ 5 16 км ясно 0.0 -7.0 59 -6 -6 993.1
ЮЗ 5 16 км ясно 0.0 -7.0 59 -6 -6 993.1
Ю 5 16 км ясно -1.0 -7.0 64 -7 -7 992.8
Ю 4 16 км ясно -1.0 -7.0 64 -6 -6 992.8
Ю 4 16 км ясно -1.0 -7.0 64 -6 -6 992.4
Ю 3 16 км ясно -2.0 -7.0 69 -7 -7 992.4
Ю 4 16 км ясно -2.0 -6.0 74 -8 -8 992.4
Ю 4 16 км ясно -2.0 -6.0 74 -8 -8 992.4
Ю 4 16 км ясно -3.0 -6.0 80 -9 -9 992.1
Ю 5 16 км ясно -3.0 -6.0 80 -10 -10 992.1
Ю 5 16 км ясно -3.0 -6.0 80 -10 -10 991.8
Ю 5 16 км ясно -2.0 -6.0 74 -8 -8 991.5
Ю 5 16 км ясно -2.0 -6.0 74 -8 -8 991.1
Ю 3 16 км ясно -3.0 -6.0 80 -8 -8 991.1
Ю 4 16 км ясно -3.0 -6.0 80 -9 -9 990.8
Ю 4 16 км ясно -4.0 -6.0 86 -10 -10 990.5
Ю 4 16 км ясно -4.0 -6.0 86 -10 -10 990.8
Ю 4 16 км ясно -4.0 -6.0 86 -10 -10 990.8
Ю 3 16 км ясно -3.0 -5.0 86 -8 -8 990.8
Ю 4 16 км ясно -4.0 -5.0 93 -10 -10 990.8
Ю 4 16 км ясно -3.0 -5.0 86 -9 -9 990.8
ЮВ 5 16 км ясно -4.0 -5.0 93 -11 -11 989.8
ЮВ 5 16 км ясно -4.0 -5.0 93 -11 -11 989.8
Ю 4 16 км ясно -3.0 -5.0 86 -9 -9 989.5
Ю 4 16 км ясно -4.0 -5.0 93 -10 -10 989.5
ЮВ 4 16 км ясно -4.0 -5.0 93 -10 -10 989.1
ЮВ 5 16 км ясно -4.0 -5.0 93 -11 -11 988.5
ЮВ 4 16 км ясно -4.0 -5.0 93 -10 -10 988.5
Местоположение метеостанции Lewis University Airport: широта 41.6031 долгота -88.1016 высота над уровнем моря 204 м.
В архиве по умолчанию представлена погода в Чикаго / Ромеовилл за последние 1-2 суток. Обновление информации о фактической погоде в базе происходит ежечасно! Архивные данные за месяц целиком и за предыдущие месяцы Вы можете получить, выбрав интересующий диапазон дат из раскрывающегося списка и нажав кнопку "Ввод!".
Внимание! Архив погоды МЕТАР в базе сайта по станциям, не включенным в климатический монитор, хранится не более 60 дней. Нет смысла пытаться выбрать более раннюю дату.
*Определитесь, кто Вы:
Внимание! Время в таблицах - местное (без учета летнего времени). Для получения всемирного времени необходимо вычесть поправку, которая равна -6 ч.
Смотрите также архив погоды в соседних городах и на ближайших метеорологических станциях:
Партнеры нашего сайта:      
Пояснения к столбцам:
  • Ветер - указаны скорость ветра в м/с - средняя за 10 мин, порывы в срок и между сроками (в фигурных скобках) и направление, откуда дует ветер: С - северный,
  • СВ - северо-восточный, В - восточный, ЮВ - юго-восточный, Ю - южный, ЮЗ - юго-западный, З - западный, СЗ - северо-западный.
  • Видимость - горизонтальная дальность видимости в метрах или километрах. При видимости от 1 до 10 км при отсутствии осадков обычно наблюдается дымка, при ухудшении видимости до 1 км и менее - туман. В сухую погоду видимость может ухудшаться дымом, пылью или мглою.
  • Явления - указаны атмосферные явления, наблюдавшиеся в срок или в последний час перед сроком; фигурными скобками обозначены явления, наблюдавшиеся между сроками (за 1-3 часа до срока); квадратными скобками обозначены град или гололедные отложения с указанием их диаметра в мм.
  • Облачность - указаны через наклонную черту общая и нижняя облачность в баллах и высота нижней границы облаков в метрах; квадратными скобками обозначены формы облаков: Ci - перистые, Cs - перисто-слоистые, Cc - перисто-кучевые, Ac - высококучевые, As - высокослоистые, Sc - слоисто-кучевые, Ns - слоисто-дождевые, Cu - кучевые, Cb - кучево-дождевые. Подробнее классификацию облаков см. в Атласе облаков (PDF).
  • T - Температура воздуха - температура, измеренная на высоте 2 м над землей.
  • Td - Температура точки росы - температура, при понижении до которой содержащийся в воздухе водяной пар достигнет насыщения.
  • f - Относительная влажность воздуха - влажноcть воздуха, измеренная на высоте 2 м над землей.
  • Te - Эффективная температура - температура, которую ощущает одетый по сезону человек в тени. Характеристика душности погоды. При расчете учитывается влияние влажности воздуха и скорости ветра на теплоощущения человека.
  • Tes - Эффективная температура на солнце - температура, которую ощущает человек, с поправкой на солнечный нагрев. Характеристика знойности погоды. Зависит от высоты солнца над горизонтом, облачности и скорости ветра. Ночью, в пасмурную погоду, а также при ветре 12 м/с и более поправка равна нулю.
  • P - Атмосферное давление - приведенное к уровню моря атмосферное давление.
  • Po - Атмосферное давление - измеренное на уровне метеостанции атмосферное давление.
  • Tmin - Минимальная температура - минимум температуры воздуха на высоте 2 м над землей.
  • Tmax - Максимальная температура - максимум температуры воздуха на высоте 2 м над землей.
  • R - Количество осадков - Количество выпавших осадков за период времени, мм. При наведении курсора мыши на число - период времени, за который выпало указанное количество осадков.
  • R24 - Количество осадков - Количество выпавших осадков за 24 часа, мм.
  • S - Снежный покров - Высота снежного покрова, см. При наведении курсора мыши на число - состояние снежного покрова и степень покрытия местности в баллах.